Weather Roundup
Issued by NWS

Home | Current Version | Previous Version | Text Only | Print | Product List | Glossary On
Versions: 1 2 3 4 5 6 7 8 9 10 11 12 13 14 15 16 17 18 19 20 21 22 23 24 25 26 27 28 29 30 31 32 33 34 35 36 37 38 39 40 41 42 43 44 45 46 47 48 49 50
636
NZUS93 KARX 191859
HRRWXR

CURRENT HOURLY OBSERVATIONS ACROSS
MUCH OF THE UPPER MISSISSIPPI VALLEY
NATIONAL WEATHER SERVICE LA CROSSE WI
100 PM CST THU JAN 19 2017


...SOUTHEAST MINNESOTA...


CITY           SKY/WX    TMP DP  RH WIND       PRES   REMARKS
ROCHESTER      CLOUDY    32  32 100 S10       29.80F WCI  24
ROCHESTER/MAYO CLOUDY    33  33 100 SE8       29.80F WCI  26
WINONA         CLOUDY    36  32  87 SE8       29.85S WCI  29
AUSTIN         CLOUDY    32  30  93 SE6       29.80F FOG     WCI  26
ALBERT LEA     CLOUDY    34  34 100 SE13      29.78F FOG     WCI  25
DODGE CENTER   PTSUNNY   32  32 100 S12       29.79S FOG     WCI  23
PRESTON        CLOUDY    32  32  99 S9        29.82S FOG     WCI  24
OWATONNA       CLOUDY    36  30  80 SE13      29.78S WCI  27
FARIBAULT      CLOUDY    37  34  87 S8        29.78S WCI  31
$$

...ELSEWHERE IN MINNESOTA...


CITY           SKY/WX    TMP DP  RH WIND       PRES   REMARKS
MINNEAPOLIS    MOSUNNY   35  31  85 SE9       29.76F WCI  28
INTNL FALLS    CLOUDY    36  31  82 S10       29.63F WCI  28
DULUTH         MOSUNNY   42  34  73 S7        29.69F
RED WING       CLOUDY    34  30  86 SE6       29.79F FOG     WCI  29
REDWOOD FALLS  SUNNY     38  34  85 SE14      29.69F FOG     WCI  30
MANKATO        MOSUNNY   38  33  82 S9        29.76F WCI  31
WORTHINGTON    FOG       36  36 100 S12       29.68F VSB 1/2 WCI  28
FAIRMONT       CLOUDY    36  34  92 S12       29.74F FOG     WCI  28
$$

...SOUTHWEST WISCONSIN...


CITY           SKY/WX    TMP DP  RH WIND       PRES   REMARKS
LA CROSSE      CLOUDY    36  33  89 S10       29.86F FOG     WCI  28
PRAIRIE DU CHI CLOUDY    34  32  92 E6        29.87F FOG     WCI  29
BOSCOBEL       CLOUDY    38  33  82 E3        29.87F HAZE
LONE ROCK      CLOUDY    36  33  89 E7        29.89F FOG     WCI  30
PLATTEVILLE    CLOUDY    37  37 100 NE5       29.86F WCI  33
FORT MC COY    SUNNY     42  33  69 S6        29.87S
MAUSTON-NEW LI MOCLDY    35  32  90 SE6       29.87S FOG     WCI  30
VIROQUA        CLOUDY    33  33 100 S7        29.85F VSB 1/4 WCI  27
WIS DELLS      MOSUNNY   35  34  94 S7        29.88S FOG     WCI  29
$$

...ELSEWHERE IN WISCONSIN...


CITY           SKY/WX    TMP DP  RH WIND       PRES   REMARKS
MILWAUKEE      CLOUDY    36  33  89 S5        29.92F FOG     WCI  32
MADISON        CLOUDY    34  33  96 S6        29.91S FOG     WCI  29
GREEN BAY      CLOUDY    34  34 100 S8        29.88F FOG     WCI  27
EAU CLAIRE     NOT AVBL
BLACK RVR FLS  FAIR      46  31  56 S5        29.83F
MEDFORD        FOG       31  31  99 S7        29.82S VSB<1/4 WCI  24
WAUSAU         CLOUDY    32  32 100 S7        29.82F FOG     WCI  26
WIS RAPIDS     CLOUDY    33  33 100 SE8       29.87S FOG     WCI  26
MARSHFIELD     FOG       32  31  96 S7        29.82F VSB 1/4 WCI  26
RICE LAKE      CLOUDY    33  33  99 E8        29.81F FOG     WCI  27
$$

...NORTHEAST IOWA...


CITY           SKY/WX    TMP DP  RH WIND       PRES   REMARKS
WATERLOO       LGT RAIN  36  34  92 S5        29.81F FOG     WCI  32
DUBUQUE        CLOUDY    37  35  92 SE5       29.84F FOG     WCI  33
DECORAH        CLOUDY    32  32 100 SE8G14    29.83F FOG     WCI  25
MASON CITY     CLOUDY    32  31  96 SE10      29.79F FOG     WCI  24
CHARLES CITY   CLOUDY    34  34 100 E8        29.81F FOG     WCI  27
OELWEIN        CLOUDY    34  34 100 E7        29.82F FOG     WCI  28
$$

...ELSEWHERE IN IOWA...


CITY           SKY/WX    TMP DP  RH WIND       PRES   REMARKS
DES MOINES     DRZL/FOG  39  37  92 SE6       29.76F VSB 1   WCI  35
IOWA CITY      LGT RAIN  38  36  92 E7        29.86F FOG     WCI  33
FORT DODGE     CLOUDY    39  34  81 SE6       29.76F WCI  35
MARSHALLTOWN   CLOUDY    36  36 100 E8        29.78F FOG     WCI  30
CEDAR RAPIDS   LGT RAIN  36  35  96 SE7       29.82F FOG     WCI  30
$$

...NORTHERN ILLINOIS...


CITY           SKY/WX    TMP DP  RH WIND       PRES   REMARKS
CHICAGO-OHARE  CLOUDY    42  37  82 S6        29.91F HAZE
CHICAGO-MIDWAY CLOUDY    40  35  83 SE7       29.93F HAZE
MOLINE         CLOUDY    41  36  82 SE9       29.85F HAZE
ROCKFORD       CLOUDY    38  36  92 E7        29.91F FOG     WCI  33
PEORIA         CLOUDY    42  38  85 SE7       29.87F FOG
$$

NOTE: "FAIR" INDICATES FEW OR NO CLOUDS BELOW 12,000 FEET WITH NO
SIGNIFICANT WEATHER AND/OR OBSTRUCTIONS TO VISIBILITY. WIND
SPEEDS ARE IN MILES-PER-HOUR.




USA.gov is the U.S. government's official web portal to all federal, state and local government web resources and services.